Location: Musselshell
(46.5176°N, 108.0911°W)
Time: 01:34:50
(UTC+00:00)

YUBILEINY - Visible Passes

Search period start: 30 June 2022 00:00
Search period end: 10 July 2022 00:00
Orbit: 1479 x 1507 km, 82.5° (Epoch: 29 June)

Date Brightness Start Highest point End Pass type
(mag) Time Alt. Az. Time Alt. Az. Time Alt. Az.
30 Jun ? 10:33:59 10° N 10:42:15 42° ENE 10:50:23 10° SE visible
01 Jul ? 03:39:56 10° WNW 03:42:46 12° NW 03:45:36 10° NNW visible
01 Jul ? 09:44:55 10° N 09:51:53 25° ENE 09:58:45 10° ESE visible
02 Jul ? 08:56:36 10° NNE 09:01:04 14° NE 09:05:30 10° E visible
03 Jul ? 10:02:07 10° N 10:10:05 36° ENE 10:17:55 10° SE visible
04 Jul ? 09:13:12 10° N 09:19:35 21° ENE 09:25:53 10° ESE visible
05 Jul ? 08:25:26 10° NNE 08:28:37 12° NE 08:31:47 10° ENE visible
05 Jul ? 10:19:30 10° N 10:28:04 51° ENE 10:36:30 10° SSE visible
06 Jul ? 09:30:17 10° N 09:37:52 31° ENE 09:45:20 10° ESE visible
07 Jul ? 08:41:34 10° NNE 08:47:14 18° NE 08:52:52 10° E visible
07 Jul ? 10:37:01 10° N 10:45:51 73° ENE 10:54:35 10° SSE visible
08 Jul ? 09:47:36 10° N 09:55:56 44° ENE 10:04:09 10° SE visible
09 Jul ? 08:58:30 10° N 09:05:37 26° ENE 09:12:40 10° ESE visible
